STARLINK-4742, 53795

Orbit data source: Space-Track

STARLINK-4742, 53795 is a payload satellite owned by SpaceX/Seattle (US) in LEO that was launched on Sun, 11 Sep 2022 UTC via an FALCON 9 launch vehicle from the Air Force Eastern Test Range (AFETR). Payload-class satellites include a variety of spacecraft equipped with specific instruments for various scientific and technological missions. These include communications satellites like Starlink; space stations such as the ISS; scientific satellites like the Hubble; Earth observation satellites from companies like Planet Labs, Umbra, and HawkEye 360; GPS; miniature CubeSats for education and research; and military/defense satellites.

Loading next visibility...
Identifier
53795, 2022-111Y
Orbit
LEO
Country
Flag of USUS
Related business
Manufacturer
SpaceX/Seattle
Mission
Operational Commercial Communications
Bus & Motor
STARLINK, Unknown motor
Mass
305 kg wet, ~290 kg dry
Launch date (UTC)
2022-09-11 (4 years ago)
Launch vehicle
FALCON 9
Launch site
Air Force Eastern Test Range (AFETR)
Object type
Payload
Rocket body
Debris
Shape & HBR
Box + 1 Pan, 10.1 m
Radar Cross Section
13.562 m², Large (>1 m²)

Expand to show TLE details & history
Last TLE update: 21 hours ago

TLE from 21 hours ago
0 STARLINK-4742
1 53795U 22111Y   26263.28205245  .00002104  00000-0  79563-4 0  9994
2 53795  53.1589 107.9401 0001084  91.4837 268.6289 15.31691637223234
Epoch: 2026-09-20T06:46Z
TLE epoch observation values (Epoch: 2026-09-20T06:46:09.331Z)
Latitude
Longitude
7.22275°
Altitude
471.683 km
Speed
7.631 km/s
True Right ascension
07h 11m 45s
True Declination
0° 00' 00"
Sunlit
Object was in daylight at epoch
Visualization orbit readout
Latitude
Unknown
Longitude
Unknown
Altitude
Unknown
Speed
Unknown
Apparent Right ascension
Unknown
Apparent Declination
Unknown
Sunlit
N/A
Visualization observer readout
Local Sidereal Time
21:06:42
Azimuth
Unknown
Elevation
Unknown
Doppler factor
Unknown
Orbital elements
Apogee altitude
471.764 km
Perigee altitude
470.279 km
Semi-major axis
6,849.159 km
Eccentricity
0.00011
Inclination
53.1589°
RAAN
107.9401°
Arg. of periapsis
91.4837°
True anomaly
268.61648°
Mean anomaly
268.6289°
Eccentric anomaly
268.62269°
Mean motion
3.82902 °/min
Orbital period
94.02 mins
BSTAR
0.000079563
Loading maneuver chart data...
Computing Atmospheric mass density...
Loading historical data...
Loading historical data...
Loading historical data...
Loading historical data...
Loading historical data...
Loading historical data...
Loading historical data...

Documentation

Showing up to 5 results
|